Aeroporto :
LOGIN :

Iscrizione | Disclaimer

   EN    FR    IT 

 










Sommario :    VFR   VFR Marginale   IFR   IFR Intensivo   IFR Molto Intensivo
Visibilità : 
Base nubi : 
>= 8 km
>= 3000ft
5 / 8 km
1000 / 3000 ft
1500m / 5 km
500 / 1000 ft
800 / 1500m
200 / 500 ft
< 800m
< 200 ft
Simboli :   Temporali  Nebbia  Neve Forte  Precipitazioni Forti  Vento > 20 kt
SIGMETs :   Varie  Temporali  Ghiacco  Turbolenza  Onda orograficha  Ceneri Vulcaniche







- Altitudine del aeroporto : 538 ft
- Codice IATA : TNF
- Carte del aeroporto


LFPN - Toussus Le Noble

ULTIMO METAR :
  • 162000Z AUTO 22003KT CAVOK 18/11 Q1021 NOSIG

METARs OBSOLETI :
  • 161930Z AUTO 23004KT CAVOK 20/11 Q1021 NOSIG
  • 161900Z AUTO 18003KT CAVOK 20/11 Q1021 NOSIG
  • 161830Z AUTO 22006KT CAVOK 22/11 Q1021 NOSIG
  • 161800Z AUTO 22006KT 190V250 CAVOK 22/11 Q1021 NOSIG
  • 161730Z AUTO 24006KT 210V280 9999 FEW043 23/12 Q1021 NOSIG

TAF TAF LFPN
Valido dal 16 a 18 ore il 17 a 03 ore UTC


161700Z 1618/1703 20008KT CAVOK
BECMG 1619/1622 VRB02KT
ATIS : +33 1 39 56 54 70
Nessun NOTAM noto per questo aeroporto.



MetMap, La meteo Aeronautica in un colpo d'occhio ! - Copyright ORBIFLY Dicembre 2007 - Disclaimer

ORBIFLY MET'MAP TEAM :

Programmazione e sviluppo : Alexandra Zaïnal
Concezione e sviluppo : Baudouin d'Aumeries
Co-Programmazione e sviluppo : Marc-Olivier Méhu
Supporto tecnico e logistico : Manuel Goepfert
Aiuto per la traduzione : Arnaldo La Scala

Contatto : metmap@orbifly.com




FONTI E CREDITI :

   NOAA